Weather History for KRYW - April, 2013

Change the Weather History Date:

Thursday, April 11, 2013

  Actual Average (KATT) Record (KATT)
Temperature  
Mean Temperature 54 °F 68 °F  
Max Temperature 66 °F 79 °F 95 °F (1925)
Min Temperature 42 °F 57 °F 35 °F (1900)
Degree Days  
Heating Degree Days 11 2  
Month to date heating degree days 24  
Since 1 July heating degree days 1523  
Cooling Degree Days 0 5  
Month to date cooling degree days 45  
Year to date cooling degree days 133  
Growing Degree Days 4 (Base 50)    
Moisture  
Dew Point 36 °F    
Average Humidity 57    
Maximum Humidity 81    
Minimum Humidity 32    
Precipitation  
Precipitation 0.00 in 0.06 in 1.44 in (1959)
Month to date precipitation 0.68  
Year to date precipitation 7.68  
Snow  
Snow 0.00 in - - ()
Month to date snowfall  
Since 1 July snowfall  
Snow Depth -    
Sea Level Pressure  
Sea Level Pressure 29.90 in    
Wind  
Wind Speed 9 mph (NE)    
Max Wind Speed 15 mph    
Max Gust Speed 25 mph    
Visibility 10 miles    
Events Rain    
T = Trace of Precipitation, MM = Missing Value Source: NWS Daily Summary

Daily Weather History Graph

Daily Weather History Graph

Search for Another Location

Airport or City:

Trip Planner

Search our weather history database for the weather conditions in past years. The results will help you decide how hot, cold, wet, or windy it might be!

Date:

Astronomy

Apr. 11, 2013 Rise Set
Actual Time 7:08 AM CDT 7:57 PM CDT
Civil Twilight 6:44 AM CDT 8:21 PM CDT
Nautical Twilight 6:15 AM CDT 8:50 PM CDT
Astronomical Twilight 5:45 AM CDT 9:20 PM CDT
Moon 7:47 AM CDT (4/11) 9:25 PM CDT (4/11)
Length of Visible Light 13h 37m
Length of Day
12h 48m
New Moon, 2% of the Moon is Illuminated
Apr 11
New Moon
Apr 18
First Quarter
Apr 25
Full
May 2
Last Quarter
May 9
New

Hourly Weather History & Observations

Time (CDT) Temp. Windchill Dew Point Humidity Pressure Visibility Wind Dir Wind Speed Gust Speed Precip Events Conditions
12:15 AM 44.6 °F 38.1 °F 37.4 °F 76% 29.96 in 10.0 mi North 13.8 mph 21.9 mph N/A   Clear
12:55 AM 44.6 °F 38.4 °F 37.4 °F 76% 29.96 in 10.0 mi North 12.7 mph 19.6 mph N/A   Clear
1:15 AM 44.6 °F 38.4 °F 35.6 °F 71% 29.97 in 10.0 mi NNW 12.7 mph 19.6 mph N/A   Clear
1:35 AM 44.6 °F 38.4 °F 35.6 °F 71% 29.93 in 10.0 mi North 12.7 mph 23.0 mph N/A   Clear
1:55 AM 44.6 °F 37.8 °F 35.6 °F 71% 29.90 in 10.0 mi North 15.0 mph 25.3 mph N/A   Clear
2:15 AM 44.6 °F 38.8 °F 35.6 °F 71% 29.92 in 10.0 mi NNW 11.5 mph 24.2 mph N/A   Mostly Cloudy
2:35 AM 44.6 °F 38.8 °F 35.6 °F 71% 29.97 in 10.0 mi NW 11.5 mph 16.1 mph N/A   Overcast
2:55 AM 44.6 °F 38.1 °F 35.6 °F 71% 29.93 in 10.0 mi NNW 13.8 mph 20.7 mph N/A   Overcast
3:15 AM 44.6 °F 40.2 °F 35.6 °F 71% 29.94 in 10.0 mi NNW 8.1 mph 17.3 mph N/A   Mostly Cloudy
3:35 AM 44.6 °F 41.4 °F 33.8 °F 66% 29.98 in 10.0 mi NW 5.8 mph - N/A   Mostly Cloudy
3:55 AM 44.6 °F 40.7 °F 35.6 °F 71% 29.95 in 10.0 mi NNW 6.9 mph - N/A Rain Light Rain
4:15 AM 42.8 °F 37.5 °F 35.6 °F 76% 29.91 in 10.0 mi NE 9.2 mph - N/A Rain Light Rain
4:35 AM 44.6 °F 43.1 °F 35.6 °F 71% 29.93 in 10.0 mi NNW 3.5 mph - N/A   Light Drizzle
4:55 AM 42.8 °F 36.2 °F 37.4 °F 81% 29.88 in 10.0 mi ENE 12.7 mph - N/A Rain Light Rain
5:15 AM 42.8 °F 36.2 °F 35.6 °F 76% 29.92 in 7.0 mi West 12.7 mph 16.1 mph N/A   Overcast
5:35 AM 44.6 °F 40.2 °F 35.6 °F 71% 29.94 in 10.0 mi NW 8.1 mph - N/A   Overcast
5:55 AM 44.6 °F 38.4 °F 35.6 °F 71% 29.86 in 10.0 mi NE 12.7 mph 19.6 mph N/A   Mostly Cloudy
6:15 AM 44.6 °F 40.2 °F 35.6 °F 71% 29.92 in 10.0 mi West 8.1 mph - N/A   Mostly Cloudy
6:35 AM 42.8 °F 39.3 °F 33.8 °F 70% 29.91 in 10.0 mi NNE 5.8 mph - N/A   Scattered Clouds
6:55 AM 42.8 °F 39.3 °F 35.6 °F 76% 29.91 in 10.0 mi NNE 5.8 mph - N/A   Scattered Clouds
7:15 AM 42.8 °F 39.3 °F 33.8 °F 70% 29.91 in 10.0 mi NNE 5.8 mph - N/A   Clear
7:35 AM 42.8 °F 40.1 °F 33.8 °F 70% 29.92 in 10.0 mi NNE 4.6 mph - N/A   Clear
7:55 AM 42.8 °F - 35.6 °F 76% 29.95 in 10.0 mi Calm Calm - N/A   Clear
8:35 AM 44.6 °F 40.7 °F 35.6 °F 71% 29.96 in 4.0 mi North 6.9 mph - N/A   Haze
8:55 AM 44.6 °F 40.2 °F 35.6 °F 71% 29.97 in 10.0 mi NE 8.1 mph - N/A   Clear
9:15 AM 46.4 °F 42.4 °F 35.6 °F 66% 29.98 in 10.0 mi NNE 8.1 mph - N/A   Clear
9:35 AM 46.4 °F 41.5 °F 35.6 °F 66% 29.98 in 10.0 mi NE 10.4 mph - N/A   Clear
9:55 AM 48.2 °F - 35.6 °F 62% 29.98 in 10.0 mi NNE 6.9 mph - N/A   Clear
10:15 AM 48.2 °F - 35.6 °F 62% 29.97 in 10.0 mi NNE 8.1 mph - N/A   Clear
10:35 AM 50.0 °F - 35.6 °F 58% 29.97 in 10.0 mi NNE 8.1 mph - N/A   Clear
10:55 AM 50.0 °F - 32.0 °F 50% 29.97 in 10.0 mi North 10.4 mph 17.3 mph N/A   Clear
11:15 AM 51.8 °F - 33.8 °F 50% 29.97 in 10.0 mi NE 5.8 mph - N/A   Clear
11:35 AM 53.6 °F - 33.8 °F 47% 29.96 in 10.0 mi NNE 8.1 mph - N/A   Clear
11:55 AM 53.6 °F - 35.6 °F 51% 29.96 in 10.0 mi North 8.1 mph - N/A   Clear
12:15 PM 55.4 °F - 33.8 °F 44% 29.95 in 10.0 mi NE 9.2 mph - N/A   Clear
12:35 PM 55.4 °F - 33.8 °F 44% 29.95 in 10.0 mi NE 6.9 mph - N/A   Clear
12:55 PM 57.2 °F - 33.8 °F 41% 29.93 in 10.0 mi ENE 6.9 mph - N/A   Clear
1:15 PM 59.0 °F - 33.8 °F 39% 29.92 in 10.0 mi Calm Calm - N/A   Clear
1:35 PM 59.0 °F - 33.8 °F 39% 29.91 in 10.0 mi Calm Calm - N/A   Clear
1:55 PM 59.0 °F - 33.8 °F 39% 29.90 in 10.0 mi East 4.6 mph - N/A   Clear
2:15 PM 60.8 °F - 35.6 °F 39% 29.89 in 10.0 mi Calm Calm - N/A   Clear
2:35 PM 62.6 °F - 35.6 °F 37% 29.88 in 10.0 mi East 4.6 mph - N/A   Clear
2:55 PM 62.6 °F - 35.6 °F 37% 29.87 in 10.0 mi East 3.5 mph - N/A   Clear
3:15 PM 64.4 °F - 33.8 °F 32% 29.86 in 10.0 mi ENE 3.5 mph - N/A   Clear
3:35 PM 64.4 °F - 33.8 °F 32% 29.86 in 10.0 mi Calm Calm - N/A   Clear
3:55 PM 64.4 °F - 33.8 °F 32% 29.84 in 10.0 mi Calm Calm - N/A   Clear
4:15 PM 64.4 °F - 35.6 °F 34% 29.83 in 10.0 mi WSW 3.5 mph - N/A   Clear
4:35 PM 64.4 °F - 35.6 °F 34% 29.83 in 10.0 mi SE 5.8 mph - N/A   Clear
4:55 PM 64.4 °F - 35.6 °F 34% 29.82 in 10.0 mi Calm Calm - N/A   Clear
5:15 PM 66.2 °F - 35.6 °F 32% 29.82 in 10.0 mi South 3.5 mph - N/A   Clear
5:35 PM 66.2 °F - 35.6 °F 32% 29.82 in 10.0 mi ESE 3.5 mph - N/A   Clear
5:55 PM 66.2 °F - 35.6 °F 32% 29.82 in 10.0 mi NE 3.5 mph - N/A   Clear
6:15 PM 66.2 °F - 35.6 °F 32% 29.82 in 10.0 mi Calm Calm - N/A   Clear
6:35 PM 66.2 °F - 35.6 °F 32% 29.82 in 10.0 mi East 3.5 mph - N/A   Clear
6:55 PM 64.4 °F - 37.4 °F 37% 29.82 in 10.0 mi ENE 5.8 mph - N/A   Clear
7:15 PM 64.4 °F - 39.2 °F 40% 29.82 in 10.0 mi East 6.9 mph - N/A   Clear
7:35 PM 62.6 °F - 41.0 °F 45% 29.83 in 10.0 mi East 6.9 mph - N/A   Clear
7:55 PM 59.0 °F - 41.0 °F 51% 29.83 in 10.0 mi East 9.2 mph - N/A   Clear
8:15 PM 59.0 °F - 41.0 °F 51% 29.83 in 10.0 mi East 6.9 mph - N/A   Clear
8:55 PM 53.6 °F - 41.0 °F 62% 29.85 in 10.0 mi East 5.8 mph - N/A   Clear
9:15 PM 53.6 °F - 41.0 °F 62% 29.86 in 10.0 mi East 6.9 mph - N/A   Clear
9:35 PM 53.6 °F - 39.2 °F 58% 29.86 in 10.0 mi East 8.1 mph - N/A   Clear
9:55 PM 53.6 °F - 41.0 °F 62% 29.86 in 10.0 mi East 5.8 mph - N/A   Clear
10:15 PM 53.6 °F - 41.0 °F 62% 29.87 in 10.0 mi East 5.8 mph - N/A   Clear
10:35 PM 51.8 °F - 41.0 °F 67% 29.88 in 10.0 mi ENE 5.8 mph - N/A   Clear
10:55 PM 51.8 °F - 41.0 °F 67% 29.89 in 10.0 mi East 5.8 mph - N/A   Clear
11:15 PM 51.8 °F - 41.0 °F 67% 29.90 in 10.0 mi East 4.6 mph - N/A   Clear
11:35 PM 51.8 °F - 41.0 °F 67% 29.90 in 10.0 mi ENE 5.8 mph - N/A   Clear
11:55 PM 51.8 °F - 41.0 °F 67% 29.91 in 10.0 mi ENE 5.8 mph - N/A   Clear